#timestamp,LO_Frequency,Hit 
1504836015.4,286047005.7,N
1504836035.2,286047005.3,N
1504836055.0,286046998.5,N
1504836056.0,286046998.5,N
1504836075.8,286047002.8,N
1504836095.6,286047002.8,N
1504836115.4,286046998.7,N
1504836135.3,286046999.6,N
1504836155.1,286046998.4,N
1504836175.8,286047002.1,N
1504836195.7,286047004.4,N
1504836215.5,286046998.8,N
1504836235.3,286047003.5,N
1504836255.2,286047006.8,N
1504836275.9,286047008.1,N
1504836295.7,286047010.3,N
1504836315.6,286047007.9,N
1504836335.4,286047005.7,N
1504836355.2,286047000.0,N
1504836375.0,286046999.8,N
1504836375.9,286046999.8,N
1504836395.8,286047005.4,N
1504836415.6,286047005.4,N
1504836435.4,286047004.2,N
1504836455.3,286047004.1,N
1504836475.1,286047005.2,N
1504836495.8,286047003.8,N
1504836515.7,286047007.0,N
1504836535.5,286047006.1,N
1504836555.3,286047008.4,N
1504836575.2,286047008.0,N
1504836595.9,286047007.0,N
1504836615.7,286047007.1,N
1504836635.6,286047010.5,P
1504836655.4,286047004.3,N
1504836675.2,286047007.5,N
1504836695.1,286047003.3,N
1504836696.0,286047003.3,N
1504836715.8,286047002.6,N
1504836735.6,286047003.7,N
1504836755.5,286047003.8,N
1504836775.3,286047003.1,N
1504836795.1,286047006.4,N
1504836815.8,286047003.1,N
1504836835.7,286047000.8,N
1504836855.5,286046996.8,N
1504836875.3,286047000.0,N
1504836895.2,286047003.9,N
1504836915.9,286046996.6,N
1504836935.7,286046998.8,N
1504836955.6,286047002.6,N
1504836975.4,286047005.6,N
1504836995.2,286047006.5,N
1504837015.0,286047005.0,N
1504837016.0,286047005.0,N
1504837035.8,286047003.8,N
1504837055.6,286047006.7,N
1504837075.4,286047008.3,N
1504837095.3,286047008.5,N
1504837115.1,286047007.5,N
1504837135.8,286047008.3,N
1504837155.7,286047009.7,N
1504837175.5,286047006.5,N
1504837195.3,286047009.0,N
1504837215.2,286047007.4,N
1504837235.9,286047004.5,N
1504837255.7,286047007.8,N
1504837275.6,286047008.2,N
1504837295.4,286047005.6,N
1504837315.2,286047003.3,N
1504837335.0,286047005.1,N
1504837336.0,286047005.1,N
1504837355.8,286047003.1,N
1504837375.6,286046999.0,N
1504837395.4,286046998.7,N
1504837415.3,286046999.6,N
1504837435.1,286046999.2,N
1504837455.8,286046998.8,N
1504837475.7,286046997.6,N
1504837495.5,286046997.3,N
1504837515.3,286047002.5,N
1504837535.2,286047002.0,N
1504837555.9,286047004.2,N
1504837575.7,286047004.6,N
1504837595.6,286047005.9,N
1504837615.4,286047005.4,N
1504837635.2,286047001.5,N
1504837655.1,286047005.4,N
1504837656.0,286047005.4,N
1504837675.8,286047006.3,N
1504837695.6,286047007.6,N
1504837715.5,286047006.7,N
1504837735.3,286047002.0,N
1504837755.1,286047006.0,N
1504837775.8,286047003.8,N
1504837795.7,286047005.6,N
1504837815.5,286047008.7,N
1504837835.3,286047008.2,N
1504837855.2,286047010.5,P
1504837875.0,286047001.3,N
1504837875.9,286047001.3,N
1504837895.7,286047000.3,N
1504837915.6,286047001.7,N
1504837935.4,286047001.4,N
1504837955.2,286047001.3,N
1504837975.1,286047005.8,N
1504837976.0,286047005.8,N
1504837995.8,286047005.3,N
1504838015.6,286047008.7,N
1504838035.5,286047007.7,N
1504838055.3,286047012.3,P
1504838075.1,286047007.3,N
1504838095.9,286047006.8,N
1504838115.7,286047002.0,N
1504838135.5,286046999.0,N
1504838155.4,286047000.0,N
1504838175.2,286047005.6,N
1504838195.0,286047006.7,N
1504838195.9,286047006.7,N
1504838215.8,286047006.8,N
1504838235.6,286047009.2,N
1504838255.4,286047009.5,N
1504838275.3,286047011.3,P
1504838295.1,286047002.4,N
1504838296.0,286047002.4,N
1504838315.8,286047003.2,N
1504838335.7,286047003.8,N
1504838355.5,286047002.5,N
1504838375.3,286047006.0,N
1504838395.1,286047003.5,N
1504838415.9,286047007.2,N
1504838435.7,286047003.0,N
1504838455.5,286047007.0,N
1504838475.4,286047009.0,P
1504838495.2,286047001.2,N
1504838515.0,286046996.8,N
1504838516.0,286046996.8,N
1504838535.8,286047002.7,N
1504838555.6,286047000.2,N
1504838575.4,286047001.1,N
1504838595.3,286047000.6,N
1504838615.1,286047002.8,N
1504838635.8,286046999.6,N
1504838655.7,286046996.6,N
1504838675.5,286046999.2,N
1504838695.3,286046994.2,N
1504838715.2,286046996.5,N
1504838735.9,286046997.8,N
1504838755.7,286047000.2,N
1504838775.6,286047001.5,N
1504838795.4,286047003.8,N
1504838815.2,286047005.9,N
1504838835.0,286047004.7,N
1504838836.0,286047004.7,N
1504838855.8,286047007.4,N
1504838875.6,286047005.0,N
1504838895.4,286047003.4,N
1504838915.3,286047005.4,N
1504838935.1,286047006.7,N
1504838955.8,286047007.8,N
1504838975.7,286047003.9,N
1504838995.5,286047002.2,N
1504839015.3,286046999.7,N
1504839035.2,286046997.8,N
1504839055.9,286046999.4,N
1504839075.7,286047000.8,N
1504839095.6,286046997.1,N
1504839115.4,286046997.2,N
1504839135.2,286046999.7,N
1504839155.0,286047001.5,N
1504839155.9,286047001.5,N
1504839175.8,286047005.7,N
1504839195.6,286047005.6,N
1504839215.4,286047003.5,N
1504839235.3,286047003.9,N
1504839255.1,286047004.4,N
1504839275.8,286047005.6,N
1504839295.7,286047006.8,N
1504839315.5,286047004.8,N
1504839335.3,286047005.9,N
1504839355.2,286047003.1,N
1504839375.9,286047007.4,N
1504839395.7,286047008.9,N
1504839415.6,286047009.7,P
1504839435.4,286047007.3,N
1504839455.2,286047009.2,P
1504839475.1,286047006.7,N
1504839476.0,286047006.7,P
1504839495.8,286047000.0,N
1504839515.6,286046998.7,N
1504839535.5,286046999.9,N
1504839555.3,286046998.4,N
1504839575.1,286046998.9,N
1504839595.9,286046998.5,N
